Location: Faicchio
(41.2833°N, 14.4833°E)
Time: 05:43:18
(UTC+00:00)

Okean 1 Rocket - Pass Details

Date: 15 June 2025
Orbit: 601 x 627 km, 82.5° (Epoch: 16 July)

Event Time Altitude Azimuth Distance (km) Brightness Sun altitude
Rises 00:30:33 0° 354° (N) 2,923 7.5 -22.3°
Reaches altitude 10° 00:32:49 10° 356° (N) 2,012 6.6 -22.1°
Maximum altitude 00:37:16 73° 82° (E) 659 3.2 -21.8°
Enters shadow 00:38:22 49° 150° (SSE) 807 3.3 -21.7°
